Location: Unspecified
(0.0000°N, 0.0000°E)
Time: 02:45:24
(UTC+00:00)

ESSA 4 - Pass Details

Date: 09 November 2024
Orbit: 1326 x 1439 km, 102.1° (Epoch: 03 December)

Event Time Altitude Azimuth Distance (km) Brightness Sun altitude
Rises 03:24:08 0° 148° (SSE) 4,334 12.6 -33.2°
Reaches altitude 10° 03:27:02 10° 140° (SE) 3,358 11.9 -32.5°
Maximum altitude 03:34:07 40° 73° (ENE) 1,851 10.2 -30.9°
Drops below altitude 10° 03:41:14 10° 7° (N) 3,370 11.2 -29.2°
Sets 03:44:07 0° 360° (N) 4,352 11.7 -28.5°
